Regional Weather Roundup
Issued by NWS Sioux Falls, SD

Home | Current Version | Previous Version | Text Only | Print | Product List | Glossary On
Versions: 1 2 3 4 5 6 7 8 9 10 11 12 13 14 15 16 17 18 19 20 21 22 23 24 25 26 27 28 29 30 31 32 33 34 35 36 37 38 39 40 41 42 43 44 45 46 47 48 49 50
000
ASUS43 KFSD 232310
RWRFSD

WEATHER ROUNDUP FOR SE SOUTH DAKOTA/SW MINNESOTA/NW IOWA
NATIONAL WEATHER SERVICE SIOUX FALLS SD
500 PM CST THU FEB 23 2017

NOTE: "FAIR" INDICATES FEW OR NO CLOUDS BELOW 12,000 FEET WITH NO
SIGNIFICANT WEATHER AND OR OBSTRUCTIONS TO VISIBILITY.


SDZ038>040-050-052>070-240000-
SOUTHEAST SOUTH DAKOTA

CITY           SKY/WX    TMP DP  RH WIND       PRES   REMARKS
BROOKINGS      PTSUNNY   28  24  85 NE18      29.87S WCI  15
CHAMBERLAIN    CLOUDY    32  27  83 N20G28    29.86S WCI  20
HURON          CLOUDY    30  23  75 NE20      29.92R WCI  17
MADISON        LGT SNOW  27  27 100 NE18G25   29.84F VSB 1   WCI  13
MITCHELL       LGT SNOW  31  26  82 NE23G32   29.85F WCI  18
SIOUX FALLS    LGT SNOW  30  27  88 NE20G35   29.79F VSB 1   WCI  17
WINNER         LGT SNOW  29  26  89 N24       29.82R FOG     WCI  15
YANKTON        PTSUNNY   32  27  80 N24G31    29.72F WCI  19
$$

MNZ071-072-080-081-089-090-097-098-240000-
SOUTHWEST MINNESOTA

CITY           SKY/WX    TMP DP  RH WIND       PRES   REMARKS
FAIRMONT       FLURRIES  33  28  81 N18       29.82R WCI  22
JACKSON        LGT SNOW  32  28  86 NE23      29.80F WCI  19
LUVERNE        LGT SNOW  30  27  86 NE20G29   29.80F WCI  18
MARSHALL       CLOUDY    30  26  85 N16       29.91  WCI  19
MONTEVIDEO     MOCLDY    30  27  86 NE14      29.95S WCI  20
PIPESTONE      LGT SNOW  28  25  86 NE20      29.82F VSB 1   WCI  15
REDWOOD FALLS  CLOUDY    31  22  69 N10G18    29.90F WCI  22
TRACY          CLOUDY    31  28  88 N20       29.88F WCI  19
WINDOM         FLURRIES  30  27  86 N22G28    29.83S WCI  17
WORTHINGTON    LGT SNOW  29  27  92 N18G28    29.80F FOG     WCI  16
$$

IAZ001>003-012>014-020>022-031-032-NEZ013-014-SDZ071-240000-
NORTHWEST IOWA

CITY           SKY/WX    TMP DP  RH WIND       PRES   REMARKS
CHEROKEE       LGT SNOW  32  31  98 NE23G30   29.70F WCI  19
DENISON        LGT RAIN  36  34  93 NE23G35   29.62R
ESTHERVILLE    LGT SNOW  31  29  92 N23       29.79F FOG     WCI  18
LE MARS        LGT RAIN  32  28  86 NE26G37   29.70F WCI  18
ORANGE CITY    FLURRIES  30  28  93 NE14G30   29.71F WCI  20
SHELDON        LGT SNOW  30  32 100 NE24G33   29.74F WCI  16
SIOUX CITY     LGT SNOW  34  30  85 NE20G36   29.66F VSB 1   WCI  23
SPENCER        LGT SNOW  32  29  88 NE30      29.74F FOG     WCI  18
STORM LAKE     LGT SNOW  32  30  93 NE29G39   29.67F WCI  18
$$

ABBREVIATIONS USED IN REMARKS
   TC - TEMPERATURE IN CELSIUS
  WCI - WIND CHILL INDEX
   HX - HEAT INDEX
  VSB - VISIBILITY





USA.gov is the U.S. government's official web portal to all federal, state and local government web resources and services.